CW9676 Weather Reports


Display with metric or nautical units.
time (UTC)temp
F
wind
direction
speed
MPH
gust
MPH
rain 1hr
in
rain 24hr
in
rain mn
in
humidity
%
barometer
mb
20260502163804 49 25 9.0 16.0 0.00 0.35 0.06 79 1018.5
20260502162804 48 341 12.0 20.0 0.00 0.35 0.06 83 1018.4
20260502161818 48 4 12.0 20.0 0.00 0.35 0.06 84 1018.3
20260502160804 47 9 12.0 17.0 0.00 0.35 0.06 84 1018.2
20260502150337 46 359 10.0 17.0 0.00 0.35 0.06 93 1017.6
20260502120729 44 353 4.0 10.0 0.00 0.34 0.05 96 1015.3
20260502115713 44 331 5.0 10.0 0.00 0.34 0.05 96 1015.0
20260502114700 45 335 5.0 10.0 0.00 0.34 0.05 96 1015.1
20260502113722 45 344 4.0 9.0 0.00 0.34 0.05 96 1015.1
20260502112714 45 352 3.0 5.0 0.00 0.34 0.05 96 1015.2
20260502111725 45 348 2.0 4.0 0.00 0.34 0.05 96 1015.2
20260502110658 45 329 3.0 6.0 0.00 0.34 0.05 96 1015.0
20260502105709 45 321 4.0 6.0 0.00 0.34 0.05 96 1014.8
20260502102448 45 345 3.0 5.0 0.00 0.34 0.05 96 1014.8
20260502101446 45 319 2.0 4.0 0.00 0.34 0.05 96 1014.9
20260502100425 45 329 1.0 3.0 0.00 0.34 0.05 96 1015.0
20260502091209 45 340 2.0 4.0 0.00 0.34 0.05 95 1014.7
20260502090145 45 353 2.0 3.0 0.00 0.34 0.05 95 1014.7
20260502065559 46 9 7.0 13.0 0.00 0.36 0.05 94 1014.2
20260502064605 46 353 9.0 18.0 0.04 0.36 0.05 94 1014.0
20260502063604 46 346 10.0 18.0 0.10 0.36 0.05 94 1013.8
20260502062600 47 330 7.0 15.0 0.06 0.35 0.04 94 1013.4
20260502061526 47 38 3.0 5.0 0.09 0.33 0.03 94 1014.2
20260502060500 47 9 5.0 11.0 0.00 0.31 0.00 94 1014.2
20260502055509 47 9 5.0 11.0 0.00 0.31 0.31 94 1014.0
20260502054451 47 344 6.0 14.0 0.00 0.31 0.31 93 1013.8
20260502053502 47 354 9.0 15.0 0.00 0.31 0.31 92 1013.6
20260502052500 47 338 9.0 18.0 0.05 0.31 0.31 91 1013.5
20260502051434 47 359 12.0 18.0 0.09 0.31 0.31 90 1013.1
20260502050407 48 338 6.0 11.0 0.00 0.29 0.28 88 1013.6
20260502045335 49 359 5.0 14.0 0.00 0.27 0.27 85 1013.7
20260502044315 49 4 9.0 14.0 0.00 0.27 0.27 83 1013.1
20260502042125 50 335 6.0 11.0 0.00 0.27 0.27 77 1012.8
20260502041054 51 331 4.0 10.0 0.00 0.27 0.27 75 1012.7
20260502040044 51 292 4.0 10.0 0.00 0.27 0.27 75 1012.4
20260502035108 51 281 6.0 12.0 0.00 0.27 0.27 75 1012.1
20260502034034 51 313 6.0 12.0 0.00 0.27 0.27 75 1011.7
20260502030827 51 317 8.0 13.0 0.00 0.27 0.27 76 1011.4
20260502025843 50 317 7.0 13.0 0.00 0.27 0.27 78 1011.1
20260502024825 50 307 7.0 10.0 0.00 0.27 0.27 84 1010.9
20260502023825 49 313 6.0 10.0 0.00 0.27 0.27 85 1010.6
20260502021632 50 317 9.0 13.0 0.00 0.27 0.27 83 1010.1
20260502020644 50 313 10.0 13.0 0.00 0.27 0.27 83 1009.7
20260502012121 50 317 6.0 12.0 0.00 0.27 0.27 84 1009.3
20260502011054 51 310 6.0 11.0 0.00 0.27 0.27 86 1009.2
20260502010046 51 321 7.0 13.0 0.00 0.27 0.27 87 1009.2
20260502005058 51 288 8.0 13.0 0.00 0.27 0.27 87 1009.3
20260502004043 50 326 6.0 12.0 0.00 0.27 0.27 87 1009.0
20260502003013 51 337 6.0 11.0 0.00 0.27 0.27 88 1008.9
20260502002017 51 314 7.0 13.0 0.04 0.27 0.27 88 1008.7
20260502001009 51 337 9.0 13.0 0.09 0.27 0.27 90 1008.5
20260502000002 50 335 7.0 11.0 0.18 0.26 0.27 88 1008.5
20260501233838 50 312 7.0 14.0 0.00 0.24 0.25 87 1008.6
20260501232819 50 317 9.0 15.0 0.00 0.24 0.25 87 1008.5
20260501231835 50 322 10.0 15.0 0.00 0.24 0.25 89 1008.4
20260501230838 50 321 9.0 13.0 0.00 0.24 0.25 89 1008.3
20260501225857 48 333 8.0 18.0 0.00 0.24 0.25 91 1008.3
20260501224832 47 336 11.0 21.0 0.05 0.24 0.25 91 1008.1
20260501223841 46 286 15.0 29.0 0.06 0.24 0.25 90 1008.1
20260501221706 43 276 17.0 31.0 0.36 0.16 0.18 87 1009.0
20260501220641 44 238 18.0 31.0 1.29 0.06 0.10 75 1008.8
20260501214501 57 110 13.0 25.0 0.00 0.02 0.02 54 1006.5
20260501213443 59 107 12.0 23.0 0.00 0.02 0.02 53 1006.9
20260501212448 60 117 15.0 23.0 0.00 0.02 0.02 51 1006.9
20260501211508 64 125 13.0 22.0 0.00 0.02 0.02 47 1006.9
20260501210526 63 136 13.0 22.0 0.00 0.02 0.02 51 1007.2
20260501205513 61 4 12.0 21.0 0.00 0.02 0.02 53 1007.5
20260501204516 63 65 11.0 21.0 0.00 0.02 0.02 50 1007.7
20260501203442 63 29 13.0 20.0 0.00 0.02 0.02 50 1007.8
20260501202424 60 34 10.0 16.0 0.00 0.02 0.02 56 1007.8
20260501201434 59 13 11.0 18.0 0.00 0.02 0.02 54 1007.8
20260501200416 59 36 9.0 18.0 0.00 0.02 0.02 53 1007.8
20260501195402 60 38 10.0 18.0 0.00 0.02 0.02 52 1007.6
20260501194422 62 60 7.0 12.0 0.00 0.02 0.02 48 1007.5
20260501193436 64 90 7.0 16.0 0.00 0.02 0.02 44 1007.3
20260501192418 66 68 7.0 16.0 0.00 0.02 0.02 44 1007.4
20260501185033 62 344 6.0 14.0 0.00 0.02 0.02 46 1007.6
20260501184009 62 61 5.0 14.0 0.00 0.02 0.02 47 1007.9
20260501183016 63 83 4.0 13.0 0.00 0.02 0.02 45 1007.7
20260501182007 65 83 5.0 13.0 0.00 0.02 0.02 44 1007.7
20260501181027 62 61 4.0 11.0 0.00 0.02 0.02 49 1007.8
20260501180007 63 9 3.0 9.0 0.00 0.02 0.02 47 1007.9
20260501175017 62 106 3.0 9.0 0.00 0.02 0.02 50 1007.8
20260501173958 61 209 4.0 9.0 0.00 0.02 0.02 51 1007.8
20260501173014 63 146 3.0 13.0 0.00 0.02 0.02 49 1007.8
20260501172011 61 221 6.0 13.0 0.00 0.02 0.02 51 1007.8